Regional Weather Roundup
Issued by NWS

Home | Current Version | Previous Version | Graphics & Text | Print | Product List | Glossary On
Versions: 1 2 3 4 5 6 7 8 9 10 11 12 13 14 15 16 17 18 19 20 21 22 23 24 25 26 27 28 29 30 31 32 33 34 35 36 37 38 39 40 41 42 43 44 45 46 47 48 49 50
000
ASUS43 KOAX 211110
RWRNE

WEATHER ROUNDUP FOR NEBRASKA
NATIONAL WEATHER SERVICE OMAHA NE
500 AM CST TUE NOV 21 2017

NOTES: SATELLITE DATA IS BEING USED TO AUGMENT CLOUD COVER ABOVE
       12000 FEET.
       "FAIR" INDICATES FEW OR NO CLOUDS BELOW 12,000 FEET WITH NO
       SIGNIFICANT WEATHER AND/OR OBSTRUCTIONS TO VISIBILITY.


NEZ001>004-019>022-054>056-211200-
NEBRASKA PANHANDLE

CITY           SKY/WX    TMP DP  RH WIND       PRES   REMARKS
SCOTTSBLUFF    CLOUDY    38  24  57 N12       30.06R WCI  30
ALLIANCE       MOCLDY    32  26  78 N8        30.06R WCI  25
CHADRON        LGT SNOW  30  28  92 NE9       30.13R FOG     WCI  22
GORDON         LGT SNOW  30  28  90 N7        30.08R WCI  23
KIMBALL        CLOUDY    44  30  58 N21G30    30.02R
SIDNEY         CLEAR     37  23  56 N18       30.01R WCI  27
$$

NEZ057>060-069>072-079>082-211200-
SOUTHWEST NEBRASKA

CITY           SKY/WX    TMP DP  RH WIND       PRES   REMARKS
NORTH PLATTE   MOCLDY    42  26  53 N25G35    29.96R
IMPERIAL       MOCLDY    51  24  34 NW14      29.93R
LEXINGTON      CLOUDY    44  26  48 NE18      29.92R
MCCOOK         CLOUDY    48  28  46 W8        29.89R
OGALLALA       PTCLDY    43  26  50 NE25G31   29.99R
$$

NEZ005>010-023>029-035>040-094-211200-
NORTH CENTRAL NEBRASKA

CITY           SKY/WX    TMP DP  RH WIND       PRES   REMARKS
VALENTINE      CLOUDY    32  28  85 MISG      30.07R
AINSWORTH      LGT SNOW  32  29  90 N16G23    30.05R WCI  21
BROKEN BOW     MOCLDY    40  23  50 N21G35    29.97R WCI  30
O`NEILL        MIX PCPN  33  33 100 N20G25    30.01R WCI  21
ORD            CLOUDY    39  25  57 N24G41    29.97R WCI  28
THEDFORD       CLOUDY    34  27  76 N13G26    30.04R WCI  25
$$

NEZ041-046>049-061>064-073>077-083>087-211200-
SOUTH CENTRAL NEBRASKA

CITY           SKY/WX    TMP DP  RH WIND       PRES   REMARKS
GRAND ISLAND   CLOUDY    42  28  57 N17       29.93R
AURORA         CLOUDY    41  27  57 N16G22    29.91R
HASTINGS       CLOUDY    43  25  49 N16G26    29.89R
HEBRON         MOCLDY    47  27  45 N16G24    29.86R
HOLDREGE       MOCLDY    41  28  58 N14       29.91R
KEARNEY        CLOUDY    43  26  51 N22G28    29.93R
YORK           CLOUDY    41  27  56 NE25G32   29.89R
$$

NEZ011>018-030>034-042>045-211200-
NORTHEAST NEBRASKA

CITY           SKY/WX    TMP DP  RH WIND       PRES   REMARKS
NORFOLK        MIX PCPN  36  31  82 N21G31    29.95R WCI  25
ALBION         CLOUDY    40  26  57 N18G31    29.97R WCI  31
BLAIR          CLOUDY    42  24  49 N20G26    29.87R
COLUMBUS       CLOUDY    41  19  41 N21G26    29.94R
FREMONT        CLOUDY    42  20  41 N14G25    29.92R
TEKAMAH        LGT RAIN  39  25  57 N20G28    29.91R WCI  29
WAYNE          CLOUDY    40  19  44 NW18      29.94R WCI  31
$$

NEZ050>053-065>068-078-088>093-211200-
SOUTHEAST NEBRASKA

CITY           SKY/WX    TMP DP  RH WIND       PRES   REMARKS
LINCOLN        CLOUDY    45  24  43 N21G31    29.91R
OMAHA EPPLEY   CLOUDY    43  24  47 N26G35    29.86R
BEATRICE       CLOUDY    45  28  52 N17G23    29.87R
FALLS CITY     CLOUDY    40  29  64 NW8       29.81R WCI  34
NEBRASKA CITY  CLOUDY    44  29  56 N10G16    29.84R
PLATTSMOUTH    CLOUDY    41  30  65 N6        29.85R
$$

NEZ044-045-051>053-067-211200-
OMAHA AREA

CITY           SKY/WX    TMP DP  RH WIND       PRES   REMARKS
OMAHA EPPLEY   CLOUDY    43  24  47 N26G35    29.86R
BLAIR          CLOUDY    42  24  49 N20G26    29.87R
FREMONT        CLOUDY    42  20  41 N14G25    29.92R
MILLARD        CLOUDY    45  25  45 N18G31    29.87R
OFFUTT AFB     CLOUDY    43  26  52 N9        29.86R
PLATTSMOUTH    CLOUDY    41  30  65 N6        29.85R
WAHOO          CLOUDY    42  23  46 N22       29.90R
$$



USA.gov is the U.S. government's official web portal to all federal, state and local government web resources and services.